Погода в Павловске

Россия / Алтайский край     53°19′42″N   82°58′15″E
темп.,
°C
ветер,
м/с
пор.,
м/с
влажн.,
%
обл.,
%
осадки,
мм/ч
давл.,
гПа
погр.,
м
4 марта, чт
чт401:00−14ююз5129369 0.1 1026325
04:00−14ююз7158834 0.0 1025379
07:00−11ююз7168555 0.0 1025492
10:00−9ююз81681100 0.0 1024582
13:00−7ююз91682100 0.0 1023582
16:00−5ююз91682100 0.0 1021612
19:00−6ююз7168394 0.0 1020485
22:00−7ююз8198160 0.0 1019473
5 марта, пт
пт501:00−7ююз9197478 0.0 1018489
04:00−7ююз71874100 0.0 1016513
07:00−7ююз81778100 0.0 1015590
10:00−5ююз91789100 0.1 1015695
13:00−2юз101594100 0.3 10161000
16:00−1зюз91581100 0.3 10191339
19:00−4юз81681100 0.3 1022798
22:00−4юз81780100 0.0 1022868
6 марта, сб
сб601:00−4юз101877100 0.0 1022935
04:00−5юз101893100 0.4 1021811
07:00−7юз101884100 0.8 1022673
10:00−7юз101980100 0.0 1021677
13:00−5юз101878100 0.0 1021715
16:00−4юз101877100 0.0 1018781
19:00−4юз91980100 0.0 1018689
22:00−5юз9188298 0.0 1017569
7 марта, вс
вс701:00−5юз8178199 0.0 1017566
04:00−5юз71486100 0.0 1016526
07:00−6юз51290100 0.0 1018365
10:00−5юз5995100 0.4 1019351
13:00−4ююз61093100 1.5 1019459
16:00−2ююз6128595 0.1 1017552
19:00−3ююз6138696 0.1 1017423
22:00−3ююз71485100 0.0 1017392
8 марта, пн
пн801:00−3ююз71582100 0.0 1017395
04:00−4ююз71583100 0.0 1015392
07:00−5юз71384100 0.0 1016347
10:00−4юз71583100 0.0 1016373
13:00−2юз71283100 0.0 1017463
16:00−1юз61084100 0.0 1016523
19:00−2юз4989100 0.0 1017419
22:00−3юз41090100 0.0 1017335